[[{"header":{"parameterUnit":"m.s-1","parameterCategory":1,"la1":30.2991,"la2":30.254,"lo1":-89.0895,"lo2":-89.0444,"dy":0.0017,"dx":0.0017,"nx":28,"ny":28,"refTime":"2024-04-03T21:00:00:Z","depth":0,"parameterNumber":2,"parameterNumberName":"U-component_of_WINDS"},"data":[0,0,0,0,0,0,0,0,0,0,0,0,0,0,0,0,0,0,0,0,0,0,0,0,0,0,0,0,0,0,0,0,0,0,0,0,0,0,0,0,0,0,0,0,0,0,0,0,0,0,0,0,0,0,0,0,0,0,5.7586,5.7587,0,5.7675,5.7676,5.7677,5.7652,5.765,5.7648,5.7647,5.7739,5.7743,5.7747,0,0,0,0,0,0,0,0,0,0,0,0,0,5.7396,5.74,5.7586,5.7587,5.7588,5.7675,5.7676,5.7677,5.7652,5.765,5.7648,5.7646,5.7738,5.7743,5.7748,0,0,0,0,0,0,0,0,0,0,0,0,0,5.7481,5.7401,5.7585,5.7586,5.7587,5.7674,5.7676,5.7678,5.7653,5.765,5.7647,5.7645,5.7736,5.7742,5.7748,5.7841,0,0,5.7767,5.777,0,0,0,0,0,0,0,0,5.7477,5.7488,5.7585,5.7586,5.7587,5.765,5.7643,5.7732,5.7654,5.7628,5.7647,5.7644,5.7712,5.772,5.7742,5.7845,5.7849,5.7768,5.7772,5.7774,5.7776,0,0,0,0,0,0,0,5.7471,5.7484,5.7621,5.7586,5.7588,5.7583,5.7592,5.766,5.7684,5.763,5.7628,5.7639,5.7712,5.7736,5.7744,5.7851,5.7768,5.7773,5.7777,5.778,5.8038,5.8041,0,0,0,0,0,0,5.7464,5.748,5.7618,5.7624,5.7524,5.7588,5.7598,5.7632,5.7683,5.7688,5.7641,5.7638,5.7727,5.7737,5.7748,5.7862,5.7774,5.778,5.7784,5.8035,5.8039,5.8042,0,0,0,0,0,0,5.746,5.7476,5.7615,5.7551,5.7569,5.7594,5.7633,5.7636,5.766,5.7692,5.7696,5.7662,5.7725,5.7739,5.7819,5.7865,5.7783,5.7789,5.8031,5.8036,5.804,5.809,0,0,0,0,0,0,5.7454,5.7475,5.751,5.7552,5.7572,5.7684,5.7635,5.7639,5.7671,5.7667,5.7712,5.7717,5.7724,5.781,5.7825,5.7872,5.7793,5.8027,5.8033,5.8039,5.8084,5.8096,5.8106,0,0,0,0,0,5.7448,5.752,5.7512,5.7528,5.7616,5.7686,5.7698,5.7704,5.7675,5.7711,5.7731,5.7716,5.7857,5.7818,5.7835,5.7884,5.8024,5.8032,5.8039,5.808,5.8094,5.8105,0,0,0,0,0,0,5.7481,5.7525,5.7517,5.7604,5.7642,5.7682,5.7727,5.7718,5.7765,5.7759,5.7765,5.7776,5.7858,5.7879,5.7835,5.7979,5.7937,5.7947,5.7962,5.7976,5.7986,5.798,5.7799,0,0,0,0,0,5.7499,5.7552,5.7587,5.7661,5.7681,5.7701,5.7732,5.7734,5.7773,5.7788,5.7815,5.7854,5.7907,5.7942,5.7993,5.8087,5.8098,5.813,5.814,5.8149,5.8159,5.8213,5.8228,5.8065,5.8065,5.8065,0,0,5.7536,5.7566,5.7599,5.7669,5.7698,5.7754,5.7714,5.7774,5.7816,5.7798,5.7875,5.7896,5.7941,5.8029,5.8069,5.8049,5.8206,5.8158,5.8164,5.817,5.8222,5.8237,5.8251,5.807,5.8069,5.8068,0,0,5.7632,5.766,5.7726,5.7756,5.7802,5.7815,5.7831,5.7873,5.7886,5.7964,5.7952,5.8003,5.8094,5.8127,5.8155,5.8267,5.8256,5.8283,5.8339,5.8392,5.8405,5.8416,5.8459,5.8473,5.8293,5.8293,5.8293,0,5.7673,5.7756,5.7761,5.7823,5.7855,5.7841,5.7909,5.7939,5.7998,5.8021,5.7998,5.8114,5.8142,5.8239,5.8267,5.829,5.831,5.8279,5.8402,5.8414,5.8425,5.8465,5.8481,5.8296,5.8296,5.8295,5.8295,0,5.7805,5.7863,5.7911,5.797,5.8007,5.8071,5.8088,5.8125,5.8124,5.8141,5.8222,5.8256,5.8315,5.8337,5.8337,5.8436,5.8422,5.84,5.8359,5.8444,5.8482,5.8497,5.8301,5.83,5.8299,5.8298,0,0,5.7924,5.7986,5.8004,5.8032,5.8082,5.8127,5.8192,5.825,5.8283,5.8325,5.8381,5.8459,5.8441,5.8473,5.8476,5.8523,5.8612,5.8496,5.8497,5.8518,5.8726,5.8743,5.8761,5.8605,5.8607,5.861,5.8723,0,5.8027,5.8141,5.8149,5.8253,5.8308,5.8296,5.8353,5.8391,5.8408,5.8458,5.8478,5.8534,5.8504,5.8524,5.8569,5.8592,5.8654,5.8583,5.8659,5.8661,5.865,5.8781,5.8798,5.8904,5.8738,5.874,5.8742,0,5.8162,5.8209,5.8318,5.8363,5.8386,5.8437,5.8492,5.8539,5.8583,5.8592,5.863,5.8627,5.8696,5.8651,5.8747,5.8698,5.873,5.8746,5.875,5.8759,5.8708,5.8795,5.8937,5.8954,5.8765,5.8764,5.8762,0,5.8241,5.8332,5.841,5.8433,5.8486,5.8523,5.8547,5.8587,5.8622,5.867,5.8694,5.8749,5.878,5.8823,5.8836,5.8802,5.8933,5.8888,5.8945,5.8945,5.8974,5.8972,5.9125,5.8991,5.8991,5.899,5.899,0,5.8356,5.8424,5.8447,5.8495,5.8572,5.858,5.8656,5.8678,5.8714,5.8768,5.876,5.8811,5.8824,5.8878,5.8888,5.8968,5.8981,5.8992,5.8994,5.8994,5.8993,5.9015,5.9009,5.8994,5.8994,5.8993,5.8992,0,5.8458,5.8475,5.856,5.8604,5.8617,5.8672,5.871,5.8757,5.8774,5.8842,5.8858,5.8885,5.8948,5.8965,5.9039,5.9047,5.9141,5.9135,5.9127,5.9127,5.9183,5.9179,5.9358,5.9383,5.923,5.9232,5.9233,0,5.8531,5.8584,5.8633,5.8669,5.8694,5.8751,5.8787,5.8798,5.8836,5.8891,5.8932,5.8994,5.9044,5.9145,5.9172,5.923,5.9227,5.9286,5.9235,5.9234,5.9231,5.9228,5.9235,5.9296,5.9297,5.9299,5.93,0,5.866,5.8666,5.8718,5.8775,5.8818,5.8863,5.8905,5.8935,5.8952,5.8996,5.906,5.9099,5.9176,5.9238,5.9297,5.9323,5.9316,5.9315,5.9332,5.9333,5.9326,5.9333,5.9155,5.9311,5.931,5.9309,5.9309,5.9308,5.8751,5.8798,5.8842,5.8901,5.8934,5.8975,5.9022,5.9046,5.9099,5.9163,5.9166,5.9236,5.9281,5.9359,5.9388,5.9444,5.9427,5.945,5.9456,5.9463,5.9469,5.9316,5.9455,5.9454,5.9454,5.9454,5.9454,0,5.8882,5.8909,5.8964,5.9024,5.9072,5.9059,5.9107,5.9147,5.9209,5.9251,5.9301,5.9376,5.9437,5.9469,5.953,5.9569,5.9567,5.9585,5.9583,5.959,5.9479,5.946,5.9585,5.9585,5.9585,5.9585,5.9585,5.9585,5.8956,5.9036,5.9048,5.9145,5.9172,5.9241,5.9269,5.9308,5.9341,5.9425,5.9476,5.9496,5.9535,5.9599,5.9655,5.9663,5.9687,5.9707,5.9713,5.961,5.9597,5.9584,5.9566,5.9712,5.9712,5.9819,5.982,5.9821]},{"header":{"parameterUnit":"m.s-1","parameterCategory":1,"la1":30.2991,"la2":30.254,"lo1":-89.0895,"lo2":-89.0444,"dy":0.0017,"dx":0.0017,"nx":28,"ny":28,"refTime":"2024-04-03T21:00:00:Z","depth":0,"parameterNumber":3,"parameterNumberName":"V-component_of_WINDS"},"data":[0,0,0,0,0,0,0,0,0,0,0,0,0,0,0,0,0,0,0,0,0,0,0,0,0,0,0,0,0,0,0,0,0,0,0,0,0,0,0,0,0,0,0,0,0,0,0,0,0,0,0,0,0,0,0,0,0,0,-1.0978,-1.0978,0,-1.0905,-1.0904,-1.0904,-1.0937,-1.0939,-1.094,-1.0942,-1.086,-1.0856,-1.0852,0,0,0,0,0,0,0,0,0,0,0,0,0,-1.1141,-1.1138,-1.0979,-1.0978,-1.0977,-1.0905,-1.0904,-1.0903,-1.0936,-1.0939,-1.0941,-1.0943,-1.0861,-1.0857,-1.0852,0,0,0,0,0,0,0,0,0,0,0,0,0,-1.1069,-1.1137,-1.0979,-1.0985,-1.0985,-1.0906,-1.0904,-1.0903,-1.0936,-1.0939,-1.0942,-1.0944,-1.0863,-1.0857,-1.0851,-1.076,0,0,-1.0834,-1.0831,0,0,0,0,0,0,0,0,-1.1073,-1.1063,-1.0985,-1.0984,-1.0984,-1.0933,-1.0932,-1.0855,-1.0935,-1.0954,-1.0942,-1.0945,-1.0882,-1.0874,-1.0854,-1.0756,-1.0753,-1.0833,-1.0829,-1.0827,-1.0825,0,0,0,0,0,0,0,-1.1078,-1.1067,-1.0949,-1.0984,-1.0983,-1.0989,-1.0982,-1.0917,-1.0903,-1.0953,-1.0955,-1.0946,-1.0882,-1.086,-1.0853,-1.0751,-1.0833,-1.0828,-1.0824,-1.0822,-1.0575,-1.0572,0,0,0,0,0,0,-1.1084,-1.1071,-1.0952,-1.0947,-1.1037,-1.0984,-1.0976,-1.0946,-1.0904,-1.09,-1.0944,-1.0948,-1.0869,-1.086,-1.085,-1.074,-1.0827,-1.0821,-1.0818,-1.0578,-1.0574,-1.0571,0,0,0,0,0,0,-1.1087,-1.1073,-1.0955,-1.1009,-1.0995,-1.0978,-1.0945,-1.0944,-1.0922,-1.0897,-1.0894,-1.0925,-1.087,-1.0858,-1.0783,-1.0738,-1.0819,-1.0814,-1.0581,-1.0577,-1.0572,-1.052,0,0,0,0,0,0,-1.1092,-1.1074,-1.104,-1.1009,-1.0992,-1.089,-1.0942,-1.094,-1.0912,-1.0917,-1.0878,-1.0875,-1.0872,-1.0791,-1.0777,-1.0731,-1.0809,-1.0585,-1.0579,-1.0574,-1.0525,-1.0514,-1.0504,0,0,0,0,0,-1.1098,-1.1027,-1.1039,-1.1024,-1.095,-1.0887,-1.0878,-1.0878,-1.0909,-1.0874,-1.0858,-1.0876,-1.0745,-1.0783,-1.0767,-1.0719,-1.0588,-1.0581,-1.0574,-1.053,-1.0516,-1.0504,0,0,0,0,0,0,-1.1051,-1.1023,-1.1035,-1.0953,-1.0923,-1.0893,-1.0849,-1.0863,-1.0821,-1.0827,-1.0827,-1.0818,-1.074,-1.0722,-1.0765,-1.0629,-1.0671,-1.0661,-1.0643,-1.0629,-1.0619,-1.0624,-1.0804,0,0,0,0,0,-1.1032,-1.0985,-1.0962,-1.0891,-1.0876,-1.0865,-1.0838,-1.0841,-1.0809,-1.0796,-1.0775,-1.0741,-1.0692,-1.066,-1.0614,-1.0524,-1.0515,-1.0482,-1.0472,-1.0463,-1.0454,-1.0404,-1.0389,-1.0548,-1.0548,-1.0548,0,0,-1.099,-1.0969,-1.0939,-1.0882,-1.0859,-1.0809,-1.0854,-1.0799,-1.0762,-1.0786,-1.0715,-1.0698,-1.066,-1.0577,-1.0539,-1.0559,-1.0408,-1.0455,-1.0448,-1.0443,-1.0396,-1.0381,-1.0367,-1.0543,-1.0544,-1.0545,0,0,-1.0888,-1.0868,-1.0807,-1.0784,-1.075,-1.0744,-1.0729,-1.0698,-1.0689,-1.0617,-1.0635,-1.059,-1.0506,-1.0479,-1.0454,-1.0344,-1.0358,-1.0329,-1.0273,-1.0224,-1.0212,-1.0201,-1.0161,-1.0147,-1.032,-1.032,-1.032,0,-1.084,-1.0768,-1.0773,-1.0718,-1.0692,-1.0715,-1.0652,-1.0629,-1.058,-1.0561,-1.0585,-1.0482,-1.0458,-1.0369,-1.0342,-1.0322,-1.0304,-1.0333,-1.0214,-1.0203,-1.0192,-1.0154,-1.0139,-1.0316,-1.0317,-1.0317,-1.0317,0,-1.071,-1.066,-1.0615,-1.057,-1.0539,-1.048,-1.0475,-1.0442,-1.0449,-1.0439,-1.0366,-1.0338,-1.0288,-1.0267,-1.0271,-1.0178,-1.0192,-1.0215,-1.0257,-1.0174,-1.0138,-1.0123,-1.0312,-1.0313,-1.0314,-1.0315,0,0,-1.0575,-1.0537,-1.0519,-1.05,-1.0465,-1.0425,-1.0367,-1.032,-1.0292,-1.0258,-1.0208,-1.0138,-1.016,-1.0131,-1.0133,-1.0091,-1.0005,-1.0119,-1.0119,-1.0098,-0.99,-0.9882,-0.9865,-1.0016,-1.0013,-1.0011,-0.9903,0,-1.0471,-1.0372,-1.0375,-1.0282,-1.0235,-1.0257,-1.0206,-1.0178,-1.0168,-1.0126,-1.0114,-1.0064,-1.0097,-1.008,-1.004,-1.0025,-0.9965,-1.0032,-0.9967,-0.9965,-0.9975,-0.9847,-0.9827,-0.9727,-0.9889,-0.9887,-0.9885,0,-1.0335,-1.03,-1.0202,-1.0175,-1.0156,-1.011,-1.0068,-1.0027,-0.9996,-0.9991,-0.9961,-0.997,-0.9909,-0.9955,-0.9871,-0.9917,-0.9891,-0.9879,-0.9875,-0.9868,-0.9919,-0.9835,-0.9695,-0.9679,-0.9863,-0.9865,-0.9867,0,-1.0246,-1.0173,-1.0106,-1.0088,-1.0055,-1.0023,-1.0007,-0.9978,-0.995,-0.9912,-0.9894,-0.9849,-0.9823,-0.9788,-0.9783,-0.9817,-0.9698,-0.9744,-0.9692,-0.9691,-0.9664,-0.9665,-0.9517,-0.9649,-0.9649,-0.965,-0.965,0,-1.0128,-1.0067,-1.0066,-1.0024,-0.9956,-0.9961,-0.9893,-0.988,-0.9855,-0.981,-0.9825,-0.9782,-0.978,-0.9736,-0.9732,-0.9663,-0.9651,-0.9645,-0.9644,-0.9642,-0.9643,-0.9624,-0.963,-0.9646,-0.9647,-0.9647,-0.9648,0,-1.0016,-1.0012,-0.994,-0.9916,-0.9908,-0.9859,-0.9837,-0.9797,-0.9789,-0.9732,-0.9719,-0.9706,-0.9654,-0.9648,-0.9586,-0.9584,-0.95,-0.9508,-0.9512,-0.9512,-0.946,-0.9465,-0.9293,-0.927,-0.9418,-0.9417,-0.9416,0,-0.994,-0.9894,-0.9866,-0.9838,-0.9821,-0.9776,-0.9748,-0.9751,-0.9721,-0.9682,-0.9646,-0.9597,-0.9557,-0.9474,-0.9458,-0.9411,-0.9417,-0.936,-0.9409,-0.9409,-0.9415,-0.9417,-0.9412,-0.9349,-0.9348,-0.9346,-0.9345,0,-0.9806,-0.9808,-0.9768,-0.9728,-0.9695,-0.9662,-0.9632,-0.9608,-0.9607,-0.9572,-0.9521,-0.9491,-0.943,-0.938,-0.9335,-0.9316,-0.9329,-0.933,-0.9316,-0.9313,-0.9317,-0.9313,-0.9484,-0.9334,-0.9335,-0.9336,-0.9336,-0.9337,-0.9709,-0.967,-0.9644,-0.9599,-0.9578,-0.955,-0.9511,-0.95,-0.9458,-0.941,-0.9414,-0.9357,-0.9327,-0.9268,-0.9247,-0.9201,-0.922,-0.9198,-0.9193,-0.9187,-0.9182,-0.9325,-0.9193,-0.9193,-0.9194,-0.9194,-0.9194,0,-0.9576,-0.9561,-0.952,-0.9479,-0.9443,-0.9463,-0.943,-0.9399,-0.935,-0.9322,-0.9284,-0.9225,-0.9177,-0.9158,-0.9111,-0.9079,-0.9084,-0.9066,-0.9068,-0.9063,-0.9168,-0.9185,-0.9063,-0.9063,-0.9063,-0.9063,-0.9063,-0.9063,-0.9502,-0.9436,-0.9435,-0.9358,-0.9343,-0.929,-0.927,-0.9243,-0.9221,-0.9156,-0.9117,-0.9106,-0.9082,-0.9033,-0.899,-0.8986,-0.8967,-0.8946,-0.8944,-0.9042,-0.9056,-0.9068,-0.9084,-0.8942,-0.8942,-0.8843,-0.8842,-0.8841]}]]